CW9181 Weather Reports


Display with metric or nautical units.
time (UTC)temp
F
wind
direction
speed
MPH
gust
MPH
rain 1hr
in
rain 24hr
in
rain mn
in
humidity
%
barometer
mb
20260901220018 75 215 7.0 12.0 0.00 0.00 0.00 46 1015.0
20260901215016 74 231 4.0 12.0 0.00 0.00 0.00 48 1014.9
20260901214019 73 16 2.0 11.0 0.00 0.00 0.00 49 1014.9
20260901213024 74 144 5.0 11.0 0.00 0.00 0.00 48 1015.0
20260901212022 74 181 5.0 12.0 0.00 0.00 0.00 48 1015.0
20260901211022 73 294 6.0 10.0 0.00 0.00 0.00 48 1015.1
20260901210022 75 229 4.0 11.0 0.00 0.00 0.00 48 1015.4
20260901205014 75 194 3.0 5.0 0.00 0.00 0.00 51 1015.4
20260901204014 73 218 4.0 12.0 0.00 0.00 0.00 54 1015.5
20260901203020 73 235 5.0 11.0 0.00 0.00 0.00 52 1015.6
20260901202040 72 243 4.0 14.0 0.00 0.00 0.00 53 1015.8
20260901201020 73 209 3.0 11.0 0.00 0.00 0.00 52 1015.9
20260901200020 73 182 6.0 12.0 0.00 0.00 0.00 51 1015.8
20260901195017 73 216 5.0 14.0 0.00 0.00 0.00 52 1015.8
20260901194016 72 175 5.0 12.0 0.00 0.00 0.00 52 1015.9
20260901193041 72 122 3.0 10.0 0.00 0.00 0.00 53 1016.1
20260901192022 72 228 5.0 15.0 0.00 0.00 0.00 54 1016.1
20260901191019 71 188 5.0 10.0 0.00 0.00 0.00 54 1016.2
20260901190041 71 152 5.0 11.0 0.00 0.00 0.00 54 1016.4
20260901185016 70 240 5.0 13.0 0.00 0.00 0.00 59 1016.5
20260901184019 69 177 6.0 11.0 0.00 0.00 0.00 60 1016.5
20260901183021 69 218 3.0 8.0 0.00 0.00 0.00 61 1016.5
20260901182023 68 203 4.0 10.0 0.00 0.00 0.00 63 1016.5
20260901181022 69 226 3.0 10.0 0.00 0.00 0.00 62 1016.5
20260901180041 69 150 7.0 12.0 0.00 0.00 0.00 60 1016.3
20260901175020 70 169 5.0 12.0 0.00 0.00 0.00 60 1016.3
20260901174038 69 206 3.0 10.0 0.00 0.00 0.00 63 1016.4
20260901173019 67 119 4.0 10.0 0.00 0.00 0.00 64 1016.3
20260901172025 67 172 6.0 13.0 0.00 0.00 0.00 64 1016.5
20260901171027 67 192 5.0 11.0 0.00 0.00 0.00 64 1016.3
20260901170046 66 199 4.0 9.0 0.00 0.00 0.00 66 1016.1
20260901165041 66 168 8.0 12.0 0.00 0.00 0.00 63 1016.1
20260901164018 65 199 6.0 10.0 0.00 0.00 0.00 65 1016.0
20260901163039 65 193 7.0 13.0 0.00 0.00 0.00 67 1016.1
20260901162033 65 155 8.0 13.0 0.00 0.00 0.00 66 1016.0
20260901161014 65 202 3.0 12.0 0.00 0.00 0.00 68 1015.9
20260901160014 64 128 3.0 13.0 0.00 0.00 0.00 70 1015.8
20260901155010 64 132 7.0 12.0 0.00 0.00 0.00 71 1015.8
20260901154015 63 159 4.0 14.0 0.00 0.00 0.00 72 1015.6
20260901153019 63 201 4.0 10.0 0.00 0.00 0.00 72 1015.4
20260901152020 62 188 5.0 9.0 0.00 0.00 0.00 75 1015.2
20260901151016 61 140 5.0 10.0 0.00 0.00 0.00 76 1015.2
20260901150017 61 165 4.0 11.0 0.00 0.00 0.00 76 1015.1
20260901145017 61 171 4.0 9.0 0.00 0.00 0.00 76 1015.1
20260901144017 60 141 5.0 11.0 0.00 0.00 0.00 77 1015.1
20260901143018 60 99 5.0 11.0 0.00 0.00 0.00 78 1014.8
20260901142041 60 147 4.0 11.0 0.00 0.00 0.00 78 1014.5
20260901141017 60 176 4.0 9.0 0.00 0.00 0.00 77 1014.4
20260901140035 60 115 7.0 12.0 0.00 0.00 0.00 77 1014.2
20260901135019 60 137 5.0 10.0 0.00 0.00 0.00 78 1014.2
20260901134015 60 150 5.0 15.0 0.00 0.00 0.00 78 1014.0
20260901133037 60 105 3.0 10.0 0.00 0.00 0.00 79 1014.0
20260901132017 59 157 5.0 11.0 0.00 0.00 0.00 79 1013.9
20260901131031 59 134 5.0 10.0 0.00 0.00 0.00 79 1013.6
20260901130016 59 174 7.0 12.0 0.00 0.00 0.00 79 1013.6
20260901125020 59 146 4.0 11.0 0.00 0.00 0.00 79 1013.6
20260901124020 59 143 5.0 10.0 0.00 0.00 0.00 79 1013.5
20260901123019 59 116 5.0 10.0 0.00 0.00 0.00 79 1013.5
20260901122048 59 151 4.0 10.0 0.00 0.00 0.00 79 1013.4
20260901121024 59 107 5.0 11.0 0.00 0.00 0.00 79 1013.5
20260901120023 59 137 5.0 9.0 0.00 0.00 0.00 78 1013.5
20260901115024 59 164 4.0 11.0 0.00 0.00 0.00 79 1013.4
20260901114026 59 139 5.0 10.0 0.00 0.00 0.00 79 1013.3
20260901113013 59 138 5.0 9.0 0.00 0.00 0.00 79 1013.3
20260901112014 59 155 5.0 8.0 0.00 0.00 0.00 79 1013.1
20260901111014 59 120 4.0 8.0 0.00 0.00 0.00 79 1013.1
20260901110015 59 108 5.0 7.0 0.00 0.00 0.00 79 1013.2
20260901105037 59 127 5.0 9.0 0.00 0.00 0.00 78 1013.2
20260901104012 59 123 4.0 8.0 0.00 0.00 0.00 78 1013.1
20260901103013 59 139 5.0 8.0 0.00 0.00 0.00 78 1013.1
20260901102035 59 124 6.0 11.0 0.00 0.00 0.00 78 1012.9
20260901101011 59 132 7.0 12.0 0.00 0.00 0.00 79 1013.1
20260901100014 59 172 5.0 13.0 0.00 0.00 0.00 79 1013.2
20260901095014 59 139 5.0 10.0 0.00 0.00 0.00 79 1013.1
20260901094010 59 157 5.0 10.0 0.00 0.00 0.00 79 1013.2
20260901093013 59 169 7.0 9.0 0.00 0.00 0.00 79 1013.1
20260901092016 59 119 4.0 11.0 0.00 0.00 0.00 78 1013.1
20260901091033 59 103 6.0 12.0 0.00 0.00 0.00 78 1013.1
20260901090013 59 119 6.0 11.0 0.00 0.00 0.00 79 1013.3
20260901085016 59 95 8.0 12.0 0.00 0.00 0.00 79 1013.2
20260901084015 59 127 6.0 11.0 0.00 0.00 0.00 79 1013.2
20260901083019 59 155 6.0 10.0 0.00 0.00 0.00 79 1013.3
20260901082021 59 156 7.0 12.0 0.00 0.00 0.00 79 1013.2
20260901081027 59 143 6.0 11.0 0.00 0.00 0.00 79 1013.2
20260901080022 59 133 7.0 13.0 0.00 0.00 0.00 79 1013.1
20260901075022 59 113 7.0 11.0 0.00 0.00 0.00 79 1013.0
20260901074024 59 99 5.0 12.0 0.00 0.00 0.00 79 1013.1
20260901073019 60 139 8.0 14.0 0.00 0.00 0.00 79 1013.1
20260901072022 60 103 6.0 14.0 0.00 0.00 0.00 78 1013.0
20260901071023 60 124 5.0 11.0 0.00 0.00 0.00 78 1013.0
20260901070046 60 130 6.0 14.0 0.00 0.00 0.00 78 1013.0
20260901065034 60 134 6.0 11.0 0.00 0.00 0.00 78 1013.0
20260901064014 60 136 7.0 13.0 0.00 0.00 0.00 78 1013.0
20260901063017 60 141 5.0 11.0 0.00 0.00 0.00 78 1013.0
20260901062012 60 162 5.0 14.0 0.00 0.00 0.00 77 1013.0
20260901061011 60 146 6.0 11.0 0.00 0.00 0.00 77 1012.9
20260901060012 61 195 5.0 11.0 0.00 0.00 0.00 77 1012.8
20260901055048 61 145 6.0 11.0 0.00 0.00 0.00 76 1012.6
20260901054028 61 132 5.0 12.0 0.00 0.00 0.00 76 1012.7
20260901053052 61 125 5.0 9.0 0.00 0.00 0.00 75 1012.6
20260901052026 62 159 5.0 11.0 0.00 0.00 0.00 75 1012.7
20260901051024 62 158 4.0 10.0 0.00 0.00 0.00 75 1012.7
20260901050028 62 199 4.0 10.0 0.00 0.00 0.00 74 1012.7
20260901045024 63 154 5.0 12.0 0.00 0.00 0.00 74 1012.6
20260901044049 63 105 6.0 11.0 0.00 0.00 0.00 74 1012.5
20260901043028 63 151 7.0 11.0 0.00 0.00 0.00 73 1012.4
20260901042020 63 169 5.0 11.0 0.00 0.00 0.00 72 1012.4
20260901041022 64 186 5.0 12.0 0.00 0.00 0.00 72 1012.3
20260901040022 64 200 5.0 14.0 0.00 0.00 0.00 71 1012.3
20260901035012 64 182 5.0 10.0 0.00 0.00 0.00 71 1012.0
20260901034011 65 165 4.0 10.0 0.00 0.00 0.00 70 1011.8
20260901033016 65 218 4.0 10.0 0.00 0.00 0.00 69 1011.6
20260901032013 65 171 3.0 10.0 0.00 0.00 0.00 69 1011.5
20260901031012 66 239 8.0 12.0 0.00 0.00 0.00 68 1011.3
20260901030013 66 201 3.0 14.0 0.00 0.00 0.00 67 1011.1
20260901025011 67 159 5.0 13.0 0.00 0.00 0.00 66 1011.0
20260901024016 68 137 6.0 11.0 0.00 0.00 0.00 64 1011.1
20260901023018 69 191 5.0 12.0 0.00 0.00 0.00 63 1010.9
20260901022021 69 195 3.0 13.0 0.00 0.00 0.00 60 1010.9
20260901021038 70 216 5.0 11.0 0.00 0.00 0.00 59 1010.8
20260901020021 71 301 5.0 12.0 0.00 0.00 0.00 57 1010.7
20260901015023 72 191 5.0 15.0 0.00 0.00 0.00 55 1010.6
20260901014040 73 189 4.0 11.0 0.00 0.00 0.00 54 1010.3
20260901013017 74 166 4.0 11.0 0.00 0.00 0.00 53 1010.4
20260901012012 75 231 5.0 15.0 0.00 0.00 0.00 50 1010.4
20260901011012 76 203 6.0 12.0 0.00 0.00 0.00 49 1010.4
20260901010204 76 212 7.0 13.0 0.00 0.00 0.00 48 1010.5
20260901005026 76 197 6.0 14.0 0.00 0.00 0.00 48 1010.5
20260901004028 77 213 5.0 15.0 0.00 0.00 0.00 47 1010.7
20260901003010 78 181 3.0 12.0 0.00 0.00 0.00 47 1010.8
20260901002031 78 184 4.0 10.0 0.00 0.00 0.00 47 1010.5
20260901001028 78 210 4.0 10.0 0.00 0.00 0.00 48 1010.7
20260901000010 78 179 5.0 12.0 0.00 0.00 0.00 47 1010.8
20260831235012 78 252 7.0 12.0 0.00 0.00 0.00 47 1010.6
20260831234029 79 227 4.0 12.0 0.00 0.00 0.00 47 1010.7
20260831233030 78 298 5.0 12.0 0.00 0.00 0.00 48 1010.9
20260831232010 78 250 6.0 10.0 0.00 0.00 0.00 48 1011.0
20260831231025 79 178 4.0 11.0 0.00 0.00 0.00 48 1011.0
20260831230023 79 172 2.0 13.0 0.00 0.00 0.00 47 1011.1
20260831225024 78 245 4.0 10.0 0.00 0.00 0.00 48 1011.2
20260831224019 78 195 5.0 13.0 0.00 0.00 0.00 49 1011.3
20260831223020 77 245 5.0 11.0 0.00 0.00 0.00 48 1011.4
20260831222023 77 159 5.0 10.0 0.00 0.00 0.00 49 1011.6
20260831221020 77 231 6.0 10.0 0.00 0.00 0.00 48 1011.6